Terminal Aerodrome Forecast
Issued by NWS Los Angeles, CA

Home | Current Version | Previous Version | Text Only | Print | Product List | Glossary On
Versions: 1 2 3 4 5 6 7 8 9 10 11 12 13 14 15 16 17 18 19 20
000
FTUS46 KLOX 230900 AAA
TAFSMX
TAF AMD
KSMX 230903Z 2309/2406 VRB03KT P6SM SKC
     FM231700 30008KT P6SM SKC
     FM232000 30018G28KT P6SM SKC
     FM240100 30015KT P6SM SKC
     FM240500 30006KT P6SM SKC=

USA.gov is the U.S. government's official web portal to all federal, state and local government web resources and services.